TimeCDT,TemperatureF,Dew PointF,Humidity,Sea Level PressureIn,VisibilityMPH,Wind Direction,Wind SpeedMPH,Gust SpeedMPH,PrecipitationIn,Events,Conditions,WindDirDegrees,DateUTC
12:15 AM,56.5,52.7,87,30.01,10.0,Calm,Calm,-,N/A,Rain,Light Rain,0,2013-09-09 05:15:00
12:35 AM,56.5,52.9,88,30.01,10.0,South,3.5,-,N/A,Rain,Light Rain,180,2013-09-09 05:35:00
12:55 AM,56.5,53.1,88,30.00,10.0,SSE,3.5,-,N/A,,Overcast,160,2013-09-09 05:55:00
1:15 AM,56.7,53.4,89,29.99,10.0,South,3.5,-,N/A,,Overcast,170,2013-09-09 06:15:00
1:35 AM,56.8,53.6,89,29.99,10.0,Calm,Calm,-,N/A,,Overcast,0,2013-09-09 06:35:00
1:55 AM,57.2,54.0,89,29.98,10.0,Calm,Calm,-,N/A,,Overcast,0,2013-09-09 06:55:00
2:15 AM,57.2,54.3,90,29.97,10.0,Calm,Calm,-,N/A,,Overcast,0,2013-09-09 07:15:00
2:35 AM,57.6,54.5,90,29.97,10.0,Calm,Calm,-,N/A,,Overcast,0,2013-09-09 07:35:00
2:55 AM,57.6,54.7,90,29.97,10.0,Calm,Calm,-,N/A,,Overcast,0,2013-09-09 07:55:00
3:15 AM,58.1,55.0,90,29.96,10.0,Calm,Calm,-,N/A,,Overcast,0,2013-09-09 08:15:00
3:35 AM,58.1,55.4,91,29.96,10.0,Calm,Calm,-,N/A,,Overcast,0,2013-09-09 08:35:00
3:55 AM,58.1,55.6,91,29.96,10.0,Calm,Calm,-,N/A,,Overcast,0,2013-09-09 08:55:00
4:15 AM,58.1,56.3,94,29.96,5.0,South,3.5,-,N/A,Rain,Heavy Rain,180,2013-09-09 09:15:00
4:35 AM,58.1,56.8,96,29.95,10.0,Calm,Calm,-,N/A,Rain,Light Rain,0,2013-09-09 09:35:00
4:55 AM,58.3,57.2,96,29.95,10.0,South,3.5,-,N/A,,Overcast,170,2013-09-09 09:55:00
5:15 AM,58.5,57.4,96,29.94,10.0,Calm,Calm,-,N/A,,Overcast,0,2013-09-09 10:15:00
5:35 AM,58.6,57.7,97,29.94,10.0,SSE,4.6,-,N/A,,Overcast,160,2013-09-09 10:35:00
5:55 AM,58.6,57.6,96,29.93,10.0,Calm,Calm,-,N/A,,Overcast,0,2013-09-09 10:55:00
6:15 AM,59.0,57.7,96,29.93,7.0,Calm,Calm,-,N/A,,Overcast,0,2013-09-09 11:15:00
6:35 AM,58.6,58.1,98,29.93,1.8,Calm,Calm,-,N/A,,Overcast,0,2013-09-09 11:35:00
6:55 AM,58.8,58.1,97,29.93,1.2,SE,3.5,-,N/A,,Overcast,140,2013-09-09 11:55:00
7:15 AM,59.0,58.3,97,29.93,2.0,Calm,Calm,-,N/A,,Overcast,0,2013-09-09 12:15:00
7:35 AM,59.2,58.6,98,29.92,3.0,Calm,Calm,-,N/A,,Overcast,0,2013-09-09 12:35:00
7:55 AM,59.5,59.0,98,29.93,4.0,Calm,Calm,-,N/A,,Overcast,0,2013-09-09 12:55:00
8:15 AM,59.9,59.2,97,29.92,2.5,South,3.5,-,N/A,,Overcast,170,2013-09-09 13:15:00
8:35 AM,59.9,59.4,98,29.93,3.0,South,4.6,-,N/A,,Overcast,180,2013-09-09 13:35:00
8:55 AM,60.4,59.5,97,29.94,5.0,Calm,Calm,-,N/A,,Overcast,0,2013-09-09 13:55:00
9:15 AM,60.8,59.9,97,29.96,5.0,Calm,Calm,-,N/A,,Overcast,0,2013-09-09 14:15:00
9:35 AM,61.0,60.1,97,29.95,3.0,Calm,Calm,-,N/A,Rain,Light Rain,0,2013-09-09 14:35:00
9:55 AM,61.2,60.3,97,29.94,2.0,South,3.5,-,N/A,Rain,Light Rain,180,2013-09-09 14:55:00
10:15 AM,61.3,60.8,98,29.91,1.8,SSE,3.5,-,N/A,Rain,Light Rain,150,2013-09-09 15:15:00
10:35 AM,61.7,61.0,97,29.91,2.5,Calm,Calm,-,N/A,Rain,Light Rain,0,2013-09-09 15:35:00
10:55 AM,62.1,61.7,99,29.91,3.0,South,4.6,-,N/A,,Overcast,170,2013-09-09 15:55:00
11:15 AM,62.4,61.7,97,29.89,3.0,SE,5.8,-,N/A,Rain,Light Rain,140,2013-09-09 16:15:00
11:35 AM,62.6,62.1,98,29.86,2.5,SE,3.5,-,N/A,Rain,Light Rain,130,2013-09-09 16:35:00
11:55 AM,63.5,62.8,97,29.85,2.5,ESE,4.6,-,N/A,,Overcast,120,2013-09-09 16:55:00
12:15 PM,64.0,63.3,97,29.85,2.5,ESE,4.6,-,N/A,Rain,Light Rain,120,2013-09-09 17:15:00
12:35 PM,64.0,63.1,97,29.84,3.0,SSE,4.6,-,N/A,,Overcast,150,2013-09-09 17:35:00
12:55 PM,64.4,63.5,97,29.83,2.5,SSE,8.1,-,N/A,,Overcast,160,2013-09-09 17:55:00
1:15 PM,64.8,63.9,97,29.82,2.5,SSE,4.6,-,N/A,,Overcast,160,2013-09-09 18:15:00
1:35 PM,65.7,64.8,97,29.82,3.0,South,6.9,-,N/A,,Overcast,170,2013-09-09 18:35:00
1:55 PM,66.4,64.9,95,29.82,3.0,SSE,8.1,-,N/A,,Overcast,160,2013-09-09 18:55:00
2:15 PM,67.1,65.5,95,29.81,4.0,SSE,6.9,-,N/A,,Overcast,160,2013-09-09 19:15:00
2:35 PM,68.0,65.7,92,29.80,4.0,SSE,6.9,-,N/A,,Overcast,160,2013-09-09 19:35:00
2:55 PM,68.9,66.2,91,29.79,5.0,SSE,6.9,-,N/A,,Overcast,150,2013-09-09 19:55:00
3:15 PM,69.1,66.4,91,29.78,5.0,Calm,Calm,-,N/A,,Overcast,0,2013-09-09 20:15:00
3:35 PM,69.8,66.7,90,29.77,5.0,ESE,4.6,-,N/A,,Overcast,120,2013-09-09 20:35:00
3:55 PM,70.7,67.5,89,29.76,5.0,SE,4.6,-,N/A,,Overcast,130,2013-09-09 20:55:00
4:15 PM,71.6,67.6,87,29.75,5.0,East,5.8,-,N/A,,Overcast,100,2013-09-09 21:15:00
4:35 PM,71.2,68.0,89,29.75,5.0,ESE,5.8,-,N/A,,Overcast,110,2013-09-09 21:35:00
4:55 PM,70.9,67.6,89,29.74,5.0,East,5.8,-,N/A,,Overcast,100,2013-09-09 21:55:00
5:15 PM,71.6,68.2,89,29.74,5.0,SE,3.5,-,N/A,,Overcast,130,2013-09-09 22:15:00
5:35 PM,72.5,68.9,88,29.73,5.0,SE,3.5,-,N/A,,Overcast,130,2013-09-09 22:35:00
5:55 PM,73.4,69.3,87,29.73,7.0,SE,3.5,-,N/A,,Overcast,140,2013-09-09 22:55:00
6:15 PM,73.6,69.8,88,29.73,7.0,Calm,Calm,-,N/A,,Overcast,0,2013-09-09 23:15:00
6:35 PM,73.4,69.8,88,29.73,7.0,Calm,Calm,-,N/A,,Overcast,0,2013-09-09 23:35:00
6:55 PM,73.0,69.8,90,29.72,7.0,SSE,3.5,-,N/A,,Overcast,150,2013-09-09 23:55:00
7:15 PM,72.9,69.8,90,29.73,5.0,SSE,3.5,-,N/A,,Mostly Cloudy,160,2013-09-10 00:15:00
7:35 PM,72.1,69.8,92,29.74,5.0,Calm,Calm,-,N/A,,Scattered Clouds,0,2013-09-10 00:35:00
7:55 PM,70.7,68.9,94,29.75,4.0,Calm,Calm,-,N/A,,Clear,0,2013-09-10 00:55:00
8:15 PM,70.0,69.4,98,29.75,2.5,Calm,Calm,-,N/A,,Mostly Cloudy,0,2013-09-10 01:15:00
8:35 PM,70.5,69.8,98,29.76,3.0,Calm,Calm,-,N/A,,Overcast,0,2013-09-10 01:35:00
8:55 PM,69.8,69.3,98,29.75,2.0,SSE,3.5,-,N/A,,Overcast,150,2013-09-10 01:55:00
9:15 PM,69.6,69.1,98,29.74,2.5,Calm,Calm,-,N/A,,Mist,0,2013-09-10 02:15:00
9:35 PM,69.1,68.9,99,29.75,1.2,Calm,Calm,-,N/A,,Mostly Cloudy,0,2013-09-10 02:35:00
9:55 PM,68.0,67.6,99,29.73,1.0,SE,3.5,-,N/A,,Mostly Cloudy,140,2013-09-10 02:55:00
10:15 PM,69.6,69.4,99,29.72,2.5,South,4.6,-,N/A,,Clear,170,2013-09-10 03:15:00
10:35 PM,70.7,70.5,99,29.73,4.0,Calm,Calm,-,N/A,,Clear,0,2013-09-10 03:35:00
10:55 PM,70.0,69.8,99,29.74,2.5,Calm,Calm,-,N/A,Thunderstorm,Mostly Cloudy,0,2013-09-10 03:55:00
11:15 PM,70.0,69.8,99,29.75,2.0,NW,3.5,-,N/A,,Overcast,310,2013-09-10 04:15:00
11:35 PM,70.7,70.3,99,29.75,2.5,NNW,3.5,-,N/A,,Overcast,330,2013-09-10 04:35:00
11:55 PM,70.7,70.2,98,29.75,2.0,Calm,Calm,-,N/A,Rain,Light Rain,0,2013-09-10 04:55:00